Perryton, TX

3:44 AM CDT on April 26, 2018 (GMT -0500)
Perryton Ochiltree County

Weather History for KPYX - April, 2014

Change the Weather History Date:

Thursday, April 3, 2014

  Actual Average Record
Temperature  
Mean Temperature 46 °F -  
Max Temperature 59 °F 65 °F 93 °F (2011)
Min Temperature 32 °F 33 °F 16 °F (1975)
Degree Days  
Heating Degree Days 19    
Moisture  
Dew Point 34 °F    
Average Humidity 68    
Maximum Humidity 95    
Minimum Humidity 20    
Precipitation  
Precipitation 0.00 in - - ()
Sea Level Pressure  
Sea Level Pressure 29.77 in    
Wind  
Wind Speed 15 mph (NNW)    
Max Wind Speed 34 mph    
Max Gust Speed 41 mph    
Visibility 8 miles    
Events      
Averages and records for this station are not official NWS values.
T = Trace of Precipitation, MM = Missing Value Source: NWS Daily Summary

Daily Weather History Graph

Daily Weather History Graph

Search for Another Location

Airport or City:

Astronomy

Apr. 03, 2014 Rise Set
Actual Time 7:26 AM CDT 8:06 PM CDT
Civil Twilight 7:00 AM CDT 8:32 PM CDT
Nautical Twilight 6:29 AM CDT 9:03 PM CDT
Astronomical Twilight 5:58 AM CDT 9:35 PM CDT
Moon 10:02 AM CDT (4/3) No Moon Set
Length of Visible Light 13h 32m
Length of Day
12h 40m
Waxing Crescent, 17% of the Moon is Illuminated
Apr 3
Waxing Crescent
Apr 7
First Quarter
Apr 15
Full
Apr 22
Last Quarter
Apr 29
New

Hourly Weather History & Observations

Time (CDT) Temp. Windchill Dew Point Humidity Pressure Visibility Wind Dir Wind Speed Gust Speed Precip Events Conditions
12:15 AM 57.0 °F - 19.9 °F 24% 29.57 in 10.0 mi SSW 9.2 mph - N/A   Clear
12:35 AM 55.4 °F - 20.3 °F 25% 29.57 in 10.0 mi SSW 10.4 mph - N/A   Scattered Clouds
12:55 AM 54.0 °F - 19.9 °F 26% 29.57 in 10.0 mi South 9.2 mph - N/A   Scattered Clouds
1:15 AM 52.9 °F - 18.5 °F 26% 29.57 in 10.0 mi South 6.9 mph - N/A   Clear
1:35 AM 53.6 °F - 18.3 °F 25% 29.56 in 10.0 mi SW 9.2 mph - N/A   Clear
1:55 AM 52.2 °F - 18.9 °F 27% 29.56 in 10.0 mi SW 11.5 mph - N/A   Clear
2:15 AM 59.4 °F - 17.4 °F 20% 29.56 in 10.0 mi SW 12.7 mph - N/A   Clear
2:35 AM 52.2 °F - 21.9 °F 31% 29.58 in 10.0 mi NNW 6.9 mph - N/A   Scattered Clouds
2:55 AM 43.3 °F 36.1 °F 36.9 °F 78% 29.61 in 10.0 mi NNE 15.0 mph - N/A   Scattered Clouds
3:15 AM 43.0 °F 36.0 °F 41.4 °F 94% 29.60 in 1.2 mi North 13.8 mph - N/A   Overcast
3:35 AM 44.1 °F 37.4 °F 42.6 °F 95% 29.60 in 3.0 mi North 13.8 mph - N/A   Overcast
3:55 AM 44.1 °F 36.5 °F 42.4 °F 94% 29.61 in 4.0 mi North 17.3 mph 20.7 mph N/A   Overcast
4:15 AM 44.2 °F 36.7 °F 42.4 °F 93% 29.63 in 5.0 mi North 17.3 mph - N/A   Overcast
4:35 AM 43.9 °F 35.4 °F 41.2 °F 90% 29.64 in 7.0 mi North 20.7 mph 26.5 mph N/A   Overcast
4:55 AM 43.0 °F 35.1 °F 40.3 °F 90% 29.64 in 7.0 mi North 17.3 mph - N/A   Overcast
5:15 AM 42.1 °F 33.6 °F 39.7 °F 91% 29.66 in 5.0 mi North 18.4 mph - N/A   Overcast
5:35 AM 41.4 °F 32.4 °F 39.6 °F 93% 29.66 in 4.0 mi North 19.6 mph 25.3 mph N/A   Overcast
5:55 AM 41.2 °F 32.7 °F 39.4 °F 93% 29.68 in 4.0 mi North 17.3 mph - N/A   Overcast
6:15 AM 40.5 °F 30.9 °F 38.8 °F 94% 29.69 in 5.0 mi North 20.7 mph - N/A   Overcast
6:35 AM 40.1 °F 31.0 °F 38.7 °F 95% 29.70 in 4.0 mi NNW 18.4 mph - N/A   Overcast
6:55 AM 40.1 °F 31.0 °F 38.5 °F 94% 29.72 in 5.0 mi NNW 18.4 mph - N/A   Overcast
7:15 AM 39.4 °F 29.8 °F 37.6 °F 93% 29.71 in 7.0 mi North 19.6 mph 26.5 mph N/A   Overcast
7:35 AM 38.7 °F 30.9 °F 36.9 °F 93% 29.72 in 5.0 mi NNW 12.7 mph - N/A   Overcast
7:55 AM 38.8 °F 30.8 °F 37.0 °F 93% 29.72 in 5.0 mi NNW 13.8 mph 17.3 mph N/A   Overcast
8:15 AM 39.2 °F 29.6 °F 36.7 °F 91% 29.74 in 7.0 mi NNW 19.6 mph 25.3 mph N/A   Overcast
8:35 AM 39.2 °F 31.2 °F 36.5 °F 90% 29.75 in 7.0 mi NNW 13.8 mph - N/A   Overcast
8:55 AM 39.9 °F 32.1 °F 36.0 °F 86% 29.76 in 7.0 mi NNW 13.8 mph - N/A   Overcast
9:15 AM 40.3 °F 32.2 °F 36.1 °F 85% 29.76 in 7.0 mi NNW 15.0 mph - N/A   Overcast
9:35 AM 40.6 °F 32.7 °F 35.8 °F 83% 29.76 in 7.0 mi NNW 15.0 mph - N/A   Overcast
9:55 AM 41.0 °F 33.5 °F 36.0 °F 82% 29.76 in 7.0 mi NNW 13.8 mph - N/A   Overcast
10:15 AM 41.7 °F 34.4 °F 35.8 °F 79% 29.76 in 10.0 mi NNW 13.8 mph 18.4 mph N/A   Overcast
10:35 AM 42.3 °F 35.9 °F 35.4 °F 77% 29.76 in 10.0 mi NNW 11.5 mph - N/A   Overcast
10:55 AM 42.6 °F 36.8 °F 35.6 °F 76% 29.77 in 10.0 mi NNW 10.4 mph - N/A   Overcast
11:15 AM 42.8 °F 37.5 °F 35.4 °F 75% 29.77 in 10.0 mi NW 9.2 mph - N/A   Overcast
11:35 AM 43.3 °F 39.9 °F 35.6 °F 74% 29.78 in 10.0 mi WNW 5.8 mph - N/A   Overcast
11:55 AM 45.0 °F 39.7 °F 36.1 °F 71% 29.77 in 10.0 mi NW 10.4 mph - N/A   Overcast
12:15 PM 46.6 °F - 36.5 °F 68% 29.77 in 10.0 mi NW 10.4 mph - N/A   Overcast
12:35 PM 47.1 °F - 36.5 °F 67% 29.76 in 10.0 mi NNW 9.2 mph - N/A   Overcast
12:55 PM 48.9 °F - 37.2 °F 64% 29.76 in 10.0 mi NNW 11.5 mph - N/A   Mostly Cloudy
1:15 PM 50.0 °F - 37.2 °F 62% 29.76 in 10.0 mi WNW 15.0 mph 19.6 mph N/A   Scattered Clouds
1:35 PM 51.3 °F - 36.3 °F 57% 29.76 in 10.0 mi NW 19.6 mph 26.5 mph N/A   Mostly Cloudy
1:55 PM 52.0 °F - 36.0 °F 54% 29.77 in 10.0 mi NNW 17.3 mph 27.6 mph N/A   Mostly Cloudy
2:15 PM 51.3 °F - 36.1 °F 56% 29.77 in 10.0 mi NW 15.0 mph 23.0 mph N/A   Scattered Clouds
2:35 PM 52.9 °F - 35.4 °F 52% 29.76 in 10.0 mi NW 12.7 mph 24.2 mph N/A   Clear
2:55 PM 53.8 °F - 35.2 °F 50% 29.76 in 10.0 mi NW 13.8 mph 25.3 mph N/A   Clear
3:15 PM 56.1 °F - 35.2 °F 45% 29.76 in 10.0 mi NW 17.3 mph 25.3 mph N/A   Clear
3:35 PM 57.2 °F - 34.3 °F 42% 29.76 in 10.0 mi NW 18.4 mph 27.6 mph N/A   Clear
3:55 PM 56.3 °F - 34.7 °F 44% 29.78 in 10.0 mi NNW 23.0 mph 32.2 mph N/A   Clear
4:15 PM 54.5 °F - 34.9 °F 48% 29.80 in 7.0 mi NW 28.8 mph 39.1 mph N/A   Scattered Clouds
4:35 PM 53.2 °F - 34.2 °F 48% 29.81 in 10.0 mi NNW 28.8 mph 39.1 mph N/A   Clear
4:55 PM 51.6 °F - 34.5 °F 52% 29.83 in 10.0 mi NNW 25.3 mph 39.1 mph N/A   Scattered Clouds
5:15 PM 51.6 °F - 34.5 °F 52% 29.85 in 10.0 mi NW 28.8 mph 35.7 mph N/A   Scattered Clouds
5:55 PM 47.7 °F - 32.4 °F 55% 29.90 in 10.0 mi NW 29.9 mph 38.0 mph N/A   Mostly Cloudy
6:15 PM 47.3 °F - 32.0 °F 55% 29.91 in 7.0 mi NW 34.5 mph 41.4 mph N/A   Mostly Cloudy
6:35 PM 44.8 °F 34.5 °F 31.5 °F 60% 29.93 in 7.0 mi NNW 33.4 mph 40.3 mph N/A   Mostly Cloudy
6:55 PM 43.7 °F 33.3 °F 31.1 °F 61% 29.96 in 10.0 mi NNW 31.1 mph 39.1 mph N/A   Mostly Cloudy
7:15 PM 43.3 °F 32.7 °F 31.5 °F 63% 29.97 in 10.0 mi NNW 32.2 mph 40.3 mph N/A   Scattered Clouds
7:35 PM 42.4 °F 32.4 °F 31.1 °F 64% 29.99 in 10.0 mi NNW 26.5 mph 35.7 mph N/A   Scattered Clouds
7:55 PM 41.0 °F 30.5 °F 30.7 °F 67% 30.00 in 10.0 mi NNW 26.5 mph 34.5 mph N/A   Scattered Clouds
8:15 PM 40.3 °F 31.0 °F 30.2 °F 67% 30.00 in 10.0 mi NNW 19.6 mph - N/A   Clear
8:35 PM 40.1 °F 31.3 °F 31.1 °F 70% 30.01 in 10.0 mi NNW 17.3 mph 23.0 mph N/A   Clear
8:55 PM 40.1 °F 30.7 °F 31.1 °F 70% 30.02 in 10.0 mi NNW 19.6 mph 24.2 mph N/A   Clear
9:15 PM 39.2 °F 29.8 °F 31.1 °F 73% 30.03 in 10.0 mi NNW 18.4 mph - N/A   Clear
9:35 PM 38.7 °F 29.1 °F 31.8 °F 76% 30.03 in 10.0 mi NNW 18.4 mph - N/A   Clear
11:15 PM 33.6 °F 25.6 °F 30.0 °F 87% 30.09 in 10.0 mi WNW 10.4 mph - N/A   Clear
11:55 PM 32.0 °F 24.8 °F 28.4 °F 87% 30.09 in 10.0 mi WNW 8.1 mph - N/A   Clear